Regional Weather Roundup
Issued by NWS

Home | Current Version | Previous Version | Graphics & Text | Print | Product List | Glossary On
Versions: 1 2 3 4 5 6 7 8 9 10 11 12 13 14 15 16 17 18 19 20 21 22 23 24 25 26 27 28 29 30 31 32 33 34 35 36 37 38 39 40 41 42 43 44 45 46 47 48 49 50
000
ASUS43 KDTX 251410
RWRMI
MICHIGAN HOURLY REGIONAL WEATHER ROUNDUP
NATIONAL WEATHER SERVICE DETROIT/PONTIAC MI
1000 AM EDT FRI MAY 25 2018

NOTE: "FAIR" INDICATES FEW OR NO CLOUDS BELOW 12,000 FEET WITH NO
SIGNIFICANT WEATHER AND/OR OBSTRUCTION TO VISIBILITY.

MIZ047>049-052>055-059>063-066>070-074>076-081>083-251500-
SOUTHEAST LOWER MICHIGAN

CITY           SKY/WX    TMP DP  RH WIND       PRES   REMARKS
ADRIAN         FAIR      73  55  53 W8        30.01S
ALMA           FAIR      75  54  47 SW9       29.95F
ANN ARBOR      FAIR      75  58  55 SW7       29.99S
BAD AXE        FAIR      76  51  42 W10       29.94F
CARO           FAIR      76  51  41 SW9       29.94F
DETROIT CITY   FAIR      76  52  43 SW9       29.98F
DETROIT        PTSUNNY   76  55  48 SW9       30.00S
FLINT          FAIR      75  55  49 W8        29.97F
GROSSE ILE     FAIR      70  60  71 S6        29.99S
HILLSDALE      FAIR      77  52  41 W9        30.00F
HOWELL         FAIR      76  55  48 SW7       29.98F

CITY           SKY/WX    TMP DP  RH WIND       PRES   REMARKS
JACKSON        FAIR      76  55  48 SW9       29.99F
LAMBERTVILLE   FAIR      77  51  39 W7        30.00S
LANSING        FAIR      76  54  46 SW8       29.97F
LAPEER         FAIR      76  51  41 W7        29.97F
MASON          FAIR      76  51  41 SW7       29.98F
MONROE         FAIR      75  54  47 SW6       29.99F
MT. CLEMENS    MOSUNNY   78  56  45 SW8       29.96F
PONTIAC        FAIR      76  54  46 SW9       29.97F
PORT HOPE        N/A     78  52  40 W8        29.90F
PORT HURON     FAIR      75  50  41 SW6       29.97F
TRI CITIES     FAIR      75  53  46 SW13      29.94F
MIDLAND        FAIR      76  54  46 SW7       29.92F
TROY           FAIR      77  51  40 SW8       30.00S
SAGINAW HB     FAIR      77  50  38 W10G16    29.93F
$$
MIZ043>046-050>051-056>058-064>065-071>073-077>080-251500-
SOUTHWEST LOWER MICHIGAN

CITY           SKY/WX    TMP DP  RH WIND       PRES   REMARKS
BATTLE CREEK   FAIR      76  56  49 SW8       29.99F
BENTON HARBOR  FAIR      77  56  48 SW8       29.96S
BIG RAPIDS     FAIR      76  53  44 W9        29.92F
COLDWATER      FAIR      75  49  40 SW5       29.99F
FREMONT        FAIR      76  56  49 W8        29.93F
HOLLAND        FAIR      77  55  46 SW15      29.95F
GRAND RAPIDS   FAIR      78  56  46 SW8       29.95F
IONIA          FAIR      77  55  46 W9        29.95F
KALAMAZOO      FAIR      76  55  48 SW8       29.98F
LUDINGTON      FAIR      71  55  58 SW8       29.90S
MARSHALL       FAIR      76  52  43 SW8       29.98F
MOUNT PLEASANT FAIR      77  54  44 SW12      29.92F
MUSKEGON       FAIR      73  53  49 SW13G21   29.94F
SOUTH HAVEN    FAIR      79  52  39 SW13      29.96S
$$
MIZ016>042-251500-
NORTHERN LOWER MICHIGAN

CITY           SKY/WX    TMP DP  RH WIND       PRES   REMARKS
ALPENA         PTSUNNY   72  57  59 S6        29.87F
BEAVER ISLAND  PTSUNNY   63  52  67 SW9G16    29.86F
BELLAIRE       FAIR      75  52  43 SW8       29.86F
CADILLAC       FAIR      76  55  47 SW10      29.91F
CHARLEVOIX     FAIR      72  55  55 SW9G16    29.89R
FRANKFORT      FAIR      71  53  52 S12G17    29.88F
GAYLORD        FAIR      75  53  46 SW15G24   29.88F
GRAYLING       FAIR      77  52  41 W8        29.88F
HARBOR SPRINGS FAIR      66  58  75 CALM      29.85F
HOUGHTON LAKE  FAIR      75  52  44 SW9       29.91F
MANISTEE       FAIR      78  59  51 SW7       29.88F
OSCODA         PTSUNNY   80  50  34 W14       29.89F
PELLSTON       FAIR      71  59  65 SW7       29.85F
ROGERS CITY    FAIR      67  59  75 SW6       29.86F
TRAVERSE CITY  FAIR      80  55  42 SW9       29.85F
$$
MIZ007>008-015-251500-
EASTERN UPPER MICHIGAN

CITY           SKY/WX    TMP DP  RH WIND       PRES   REMARKS
KINROSS        FAIR      65  61  87 VRB6      29.84F
MACKINAC ISLAN PTSUNNY   66  60  81 SW7       29.84F
NEWBERRY       PTSUNNY   65  64  97 SW8       29.84R
S. S. MARIE    PTSUNNY   64  59  83 VRB5      29.83F
MUNISING         N/A     70  65  84 SW9       29.80F
$$
MIZ004>006-011>014-085-251500-
CENTRAL UPPER MICHIGAN

CITY           SKY/WX    TMP DP  RH WIND       PRES   REMARKS
MANISTIQUE     LGT RAIN  50  49  94 SE5       29.84F
ESCANABA       CLOUDY    64  59  83 E3        29.84R
MENOMINEE      FAIR      78  65  63 W8        29.83F
SAWYER-GWINN   PTSUNNY   64  63  94 CALM      29.84F
$$
MIZ001>003-009>011-084-251500-
WESTERN UPPER MICHIGAN

CITY           SKY/WX    TMP DP  RH WIND       PRES   REMARKS
IRON MOUNTAIN  FAIR      74  64  71 W7        29.81F
HOUGHTON       FAIR      65  60  84 S6        29.77F
COPPER HARBOR    N/A     63  59  87 SW15G22   29.74F
IRONWOOD       LGT RAIN  70  59  68 SW12      29.79S
$$

ABBREVIATIONS USED IN REMARKS
   TC - TEMPERATURE IN CELSIUS
  WCI - WIND CHILL INDEX
   HX - HEAT INDEX
  VSB - VISIBILITY





USA.gov is the U.S. government's official web portal to all federal, state and local government web resources and services.